• In Romania
  • List of Countries
  • For 7 days
  • Water Temperature
  • Satellite Maps
  • Weather Map
  • Weather Widgets
  • user-avatar
    Login

    Hourly Weather Blagoevgrad

    Today, 20 June, Wednesday

    Time Temperature Precipitation Wind Pressure Humidity
    00:00 +18°C° 0 mm 1 mps 722 mmHg 78%
    01:00 +18°C° 0 mm 1 mps 722 mmHg 78%
    02:00 +16°C° 0 mm 1 mps 722 mmHg 78%
    03:00 +16°C° 0 mm 1 mps 722 mmHg 79%
    04:00 +16°C° 0 mm 1 mps 723 mmHg 79%
    05:00 +16°C° 0 mm 1 mps 723 mmHg 80%
    06:00 +18°C° 0 mm 2 mps 723 mmHg 72%
    07:00 +21°C° 0 mm 2 mps 723 mmHg 64%
    08:00 +24°C° 0 mm 2 mps 724 mmHg 57%
    09:00 +26°C° 0 mm 2 mps 724 mmHg 50%
    10:00 +27°C° 0 mm 2 mps 724 mmHg 44%
    11:00 +29°C° 0 mm 3 mps 724 mmHg 38%
    12:00 +29°C° 0 mm 3 mps 724 mmHg 37%
    13:00 +30°C° 0 mm 3 mps 724 mmHg 36%
    14:00 +30°C° 0 mm 2 mps 724 mmHg 36%
    15:00 +30°C° 0 mm 2 mps 723 mmHg 38%
    16:00 +29°C° 0 mm 2 mps 723 mmHg 40%
    17:00 +29°C° 0 mm 2 mps 723 mmHg 42%
    18:00 +27°C° 0 mm 2 mps 723 mmHg 48%
    19:00 +25°C° 0 mm 2 mps 723 mmHg 53%
    20:00 +23°C° 0 mm 1 mps 722 mmHg 59%
    21:00 +22°C° 0 mm 1 mps 723 mmHg 62%
    22:00 +21°C° 0 mm 1 mps 723 mmHg 65%
    23:00 +20°C° 0 mm 1 mps 723 mmHg 67%

    Tomorrow, 21 June, Thursday

    Time Temperature Precipitation Wind Pressure Humidity
    00:00 +19°C° 0 mm 1 mps 723 mmHg 69%
    01:00 +19°C° 0 mm 1 mps 723 mmHg 70%
    02:00 +19°C° 0 mm 1 mps 723 mmHg 71%
    03:00 +18°C° 0 mm 1 mps 723 mmHg 72%
    04:00 +18°C° 0 mm 1 mps 723 mmHg 73%
    05:00 +18°C° 0 mm 1 mps 722 mmHg 74%
    06:00 +20°C° 0 mm 1 mps 723 mmHg 67%
    07:00 +23°C° 0 mm 1 mps 723 mmHg 59%
    08:00 +25°C° 0 mm 1 mps 723 mmHg 52%
    09:00 +27°C° 0 mm 1 mps 723 mmHg 47%
    10:00 +28°C° 0 mm 1 mps 723 mmHg 42%
    11:00 +30°C° 0 mm 1 mps 723 mmHg 38%
    12:00 +30°C° 0 mm 1 mps 722 mmHg 37%
    13:00 +30°C° 0 mm 1 mps 722 mmHg 37%
    14:00 +30°C° 0 mm 1 mps 721 mmHg 37%
    15:00 +29°C° 0 mm 1 mps 721 mmHg 40%
    16:00 +29°C° 0 mm 1 mps 720 mmHg 43%
    17:00 +28°C° 0 mm 1 mps 720 mmHg 46%
    18:00 +26°C° 0 mm 1 mps 720 mmHg 50%
    19:00 +25°C° 0 mm 1 mps 719 mmHg 54%
    20:00 +23°C° 0 mm 1 mps 719 mmHg 58%
    21:00 +22°C° 0 mm 1 mps 719 mmHg 60%
    22:00 +21°C° 0 mm 1 mps 719 mmHg 62%
    23:00 +20°C° 0 mm 1 mps 719 mmHg 64%

    Day after tomorrow, 22 June, Friday

    Time Temperature Precipitation Wind Pressure Humidity
    00:00 +20°C° 0 mm 1 mps 719 mmHg 66%
    01:00 +20°C° 0 mm 1 mps 719 mmHg 67%
    02:00 +19°C° 0 mm 1 mps 719 mmHg 69%
    03:00 +19°C° 0 mm 1 mps 718 mmHg 70%
    04:00 +19°C° 0 mm 1 mps 718 mmHg 71%
    05:00 +18°C° 0 mm 1 mps 718 mmHg 72%
    06:00 +21°C° 0 mm 1 mps 718 mmHg 66%
    07:00 +23°C° 0 mm 1 mps 718 mmHg 59%
    08:00 +26°C° 0 mm 1 mps 719 mmHg 53%
    09:00 +27°C° 0.1 mm 1 mps 719 mmHg 50%
    10:00 +28°C° 0.1 mm 2 mps 719 mmHg 47%
    11:00 +29°C° 0.1 mm 2 mps 718 mmHg 44%
    12:00 +30°C° 0.4 mm 2 mps 718 mmHg 44%
    13:00 +30°C° 0.4 mm 2 mps 718 mmHg 44%
    14:00 +30°C° 0.4 mm 3 mps 718 mmHg 45%
    15:00 +29°C° 0.6 mm 3 mps 718 mmHg 50%
    16:00 +28°C° 0.6 mm 3 mps 718 mmHg 55%
    17:00 +27°C° 0.6 mm 4 mps 718 mmHg 60%
    18:00 +25°C° 0.6 mm 3 mps 718 mmHg 66%
    19:00 +22°C° 0.6 mm 3 mps 718 mmHg 72%
    20:00 +20°C° 0.6 mm 3 mps 719 mmHg 78%
    21:00 +19°C° 0.2 mm 3 mps 719 mmHg 81%
    22:00 +17°C° 0.2 mm 2 mps 719 mmHg 84%
    23:00 +16°C° 0.2 mm 2 mps 720 mmHg 87%

    23 June, Saturday

    Time Temperature Precipitation Wind Pressure Humidity
    00:00 +15°C° 0 mm 2 mps 720 mmHg 87%
    01:00 +15°C° 0 mm 2 mps 720 mmHg 86%
    02:00 +14°C° 0 mm 2 mps 720 mmHg 85%
    03:00 +13°C° 0 mm 2 mps 720 mmHg 83%
    04:00 +13°C° 0 mm 2 mps 720 mmHg 80%
    05:00 +12°C° 0 mm 2 mps 720 mmHg 78%
    06:00 +13°C° 0 mm 3 mps 721 mmHg 70%
    07:00 +16°C° 0 mm 3 mps 721 mmHg 62%
    08:00 +18°C° 0 mm 3 mps 721 mmHg 54%
    09:00 +20°C° 0 mm 3 mps 722 mmHg 48%
    10:00 +22°C° 0 mm 3 mps 722 mmHg 41%
    11:00 +25°C° 0 mm 3 mps 722 mmHg 35%
    12:00 +26°C° 0 mm 3 mps 722 mmHg 34%
    13:00 +26°C° 0 mm 3 mps 721 mmHg 33%
    14:00 +27°C° 0 mm 2 mps 721 mmHg 33%
    15:00 +27°C° 0 mm 2 mps 721 mmHg 36%
    16:00 +26°C° 0 mm 3 mps 721 mmHg 39%
    17:00 +25°C° 0 mm 3 mps 721 mmHg 42%
    18:00 +23°C° 0.1 mm 2 mps 721 mmHg 51%
    19:00 +20°C° 0.1 mm 2 mps 721 mmHg 59%
    20:00 +18°C° 0.1 mm 2 mps 721 mmHg 67%
    21:00 +18°C° 0.2 mm 1 mps 721 mmHg 71%
    22:00 +18°C° 0.2 mm 1 mps 722 mmHg 75%
    23:00 +16°C° 0.2 mm 1 mps 722 mmHg 79%

    24 June, Sunday

    Time Temperature Precipitation Wind Pressure Humidity
    00:00 +16°C° 0.2 mm 1 mps 722 mmHg 81%
    01:00 +15°C° 0.2 mm 1 mps 722 mmHg 82%
    02:00 +15°C° 0.2 mm 1 mps 722 mmHg 84%
    03:00 +15°C° 0.2 mm 1 mps 721 mmHg 84%
    04:00 +15°C° 0.2 mm 1 mps 721 mmHg 84%
    05:00 +15°C° 0.2 mm 1 mps 721 mmHg 84%
    06:00 +16°C° 0.2 mm 1 mps 722 mmHg 82%
    07:00 +16°C° 0.2 mm 1 mps 722 mmHg 79%
    08:00 +18°C° 0.2 mm 1 mps 722 mmHg 77%
    09:00 +19°C° 0.2 mm 1 mps 722 mmHg 74%
    10:00 +20°C° 0.2 mm 1 mps 722 mmHg 70%
    11:00 +21°C° 0.2 mm 1 mps 722 mmHg 67%
    12:00 +21°C° 0.3 mm 1 mps 722 mmHg 68%
    13:00 +21°C° 0.3 mm 1 mps 722 mmHg 69%
    14:00 +21°C° 0.3 mm 1 mps 722 mmHg 70%
    15:00 +21°C° 0.4 mm 1 mps 722 mmHg 72%
    16:00 +21°C° 0.4 mm 1 mps 722 mmHg 74%
    17:00 +20°C° 0.4 mm 1 mps 721 mmHg 76%
    18:00 +20°C° 0.2 mm 1 mps 721 mmHg 79%
    19:00 +19°C° 0.2 mm 1 mps 721 mmHg 82%
    20:00 +18°C° 0.2 mm 1 mps 721 mmHg 85%
    21:00 +18°C° 0.1 mm 1 mps 722 mmHg 87%
    22:00 +16°C° 0.1 mm 1 mps 722 mmHg 89%
    23:00 +16°C° 0.1 mm 1 mps 722 mmHg 90%

    25 June, Monday

    Time Temperature Precipitation Wind Pressure Humidity
    00:00 +16°C° 0.2 mm 1 mps 721 mmHg 91%
    01:00 +16°C° 0.2 mm 1 mps 721 mmHg 91%
    02:00 +16°C° 0.2 mm 1 mps 721 mmHg 91%
    03:00 +16°C° 0.4 mm 1 mps 721 mmHg 92%
    04:00 +16°C° 0.4 mm 1 mps 721 mmHg 92%
    05:00 +16°C° 0.4 mm 1 mps 721 mmHg 92%
    06:00 +16°C° 0.2 mm 1 mps 721 mmHg 89%
    07:00 +18°C° 0.2 mm 1 mps 721 mmHg 86%
    08:00 +19°C° 0.2 mm 1 mps 721 mmHg 83%
    09:00 +20°C° 0.1 mm 1 mps 721 mmHg 77%
    10:00 +22°C° 0.1 mm 1 mps 721 mmHg 70%
    11:00 +23°C° 0.1 mm 1 mps 721 mmHg 64%
    12:00 +23°C° 0.6 mm 2 mps 721 mmHg 65%
    13:00 +23°C° 0.6 mm 2 mps 721 mmHg 65%
    14:00 +24°C° 0.6 mm 2 mps 720 mmHg 66%
    15:00 +23°C° 1.1 mm 2 mps 720 mmHg 68%
    16:00 +23°C° 1.1 mm 2 mps 720 mmHg 71%
    17:00 +23°C° 1.1 mm 2 mps 720 mmHg 73%
    18:00 +21°C° 0.7 mm 1 mps 720 mmHg 77%
    19:00 +20°C° 0.7 mm 1 mps 720 mmHg 81%
    20:00 +19°C° 0.7 mm 1 mps 720 mmHg 86%
    21:00 +19°C° 0.4 mm 1 mps 720 mmHg 87%
    22:00 +18°C° 0.4 mm 1 mps 721 mmHg 89%
    23:00 +18°C° 0.4 mm 1 mps 721 mmHg 91%
    Show more